Weather reports worldwide

Advertisment
Cannes, France (7684): temperature & dewpoint: 10.09.2019 05:00:00 - 16.09.2019 05:00:00 (CEST)Cannes, France (7684): temperature 5cm: 10.09.2019 05:00:00 - 16.09.2019 05:00:00 (CEST)Cannes, France (7684): wind speed & gusts: 10.09.2019 05:00:00 - 16.09.2019 05:00:00 (CEST)Cannes, France (7684): wind direction: 10.09.2019 05:00:00 - 16.09.2019 05:00:00 (CEST)Cannes, France (7684): reduced air pressure: 10.09.2019 05:00:00 - 16.09.2019 05:00:00 (CEST)Cannes, France (7684): visibility: 10.09.2019 05:00:00 - 16.09.2019 05:00:00 (CEST)Cannes, France (7684): precipitation: 10.09.2019 05:00:00 - 16.09.2019 05:00:00 (CEST)
Date & Time tt [°C] td [°C] tt 5cm [°C] ff [km/h] ff [kn] fx [km/h] fx [kn] dd ppp [hPa] vv [km] rr [mm]
16.09.2019 05:00:00 18,6 15,3 17,6 5 3 11 6 N 1020,2 56 0,0
16.09.2019 04:00:00 18,7 15,2 17,8 6 4 11 6 N 1020,5 58 0,0
16.09.2019 03:00:00 18,7 15,2 17,5 6 3 13 7 N 1020,8 57 0,0
16.09.2019 02:00:00 18,4 15,3 16,4 7 4 12 6 N 1021,2 54 0,0
16.09.2019 01:00:00 18,3 15,4 16,6 5 3 11 6 N 1021,5 52 0,0
16.09.2019 00:00:00 19,0 15,9 16,4 4 2 7 4 N 1021,5 44 0,0
15.09.2019 23:00:00 19,6 16,1 17,4 4 2 10 5 N 1021,6 54 0,0
15.09.2019 22:00:00 20,7 16,3 18,4 6 3 10 5 N 1021,5 51 0,0
15.09.2019 21:00:00 21,8 16,3 18,7 2 1 4 2 NW 1021,3 59 0,0
15.09.2019 20:00:00 23,8 17,1 20,4 0 0 7 4 N 1021,2 12 0,0
15.09.2019 19:00:00 25,4 16,3 25,9 2 1 9 5 SSE 1021,7 60 0,0
15.09.2019 18:00:00 26,1 16,6 28,3 6 4 16 9 S 1022,2 58 0,0
15.09.2019 17:00:00 26,9 18,7 31,5 11 6 17 9 S 1022,5 52 0,0
15.09.2019 16:00:00 27,2 17,7 30,1 6 3 12 7 S 1023,0 59 0,0
15.09.2019 15:00:00 26,6 16,8 30,3 8 4 16 8 S 1023,7 56 0,0
15.09.2019 14:00:00 27,2 17,1 30,7 9 5 19 10 S 1024,1 59 0,0
15.09.2019 13:00:00 26,9 17,1 31,8 14 7 21 11 S 1024,5 60 0,0
15.09.2019 12:00:00 27,4 15,1 32,9 12 6 21 11 S 1024,5 51 0,0
15.09.2019 11:00:00 27,3 15,3 29,5 3 1 10 6 E 1024,6 60 0,0
15.09.2019 10:00:00 23,4 14,9 24,0 5 3 12 7 NNE 1024,5 59 0,0
15.09.2019 09:00:00 20,1 14,2 18,3 6 4 13 7 N 1024,4 60 0,0
15.09.2019 08:00:00 18,1 12,8 15,8 6 4 13 7 NNE 1024,5 60 0,0
15.09.2019 07:00:00 17,3 12,6 15,4 8 5 13 7 N 1024,0 60 0,0
15.09.2019 06:00:00 17,5 12,6 15,5 5 3 11 6 N 1023,8 60 0,0
15.09.2019 05:00:00 17,7 13,0 16,1 7 4 11 6 N 1024,1 60 0,0
15.09.2019 04:00:00 18,0 13,3 16,0 5 3 12 6 NNE 1024,6 60 0,0
15.09.2019 03:00:00 18,5 13,4 17,0 9 5 16 9 N 1024,3 60 0,0
15.09.2019 02:00:00 18,8 13,4 17,1 9 5 15 8 N 1024,8 60 0,0
15.09.2019 01:00:00 19,1 13,9 17,6 8 4 14 7 N 1024,7 60 0,0
15.09.2019 00:00:00 19,8 14,4 18,2 7 4 16 9 N 1024,8 60 0,0
14.09.2019 23:00:00 20,5 14,8 19,0 7 4 16 9 N 1025,0 60 0,0
14.09.2019 22:00:00 21,0 14,9 19,2 6 4 12 6 N 1025,3 60 0,0
14.09.2019 21:00:00 22,2 14,8 19,6 8 4 10 5 N 1025,5 60 0,0
14.09.2019 20:00:00 24,0 14,1 20,1 2 1 9 5 WNW 1025,2 20 0,0
14.09.2019 19:00:00 25,4 14,5 24,8 8 4 11 6 SSW 1024,9 60 0,0
14.09.2019 18:00:00 26,4 13,8 26,8 4 2 14 8 S 1024,8 60 0,0
14.09.2019 17:00:00 26,8 16,1 28,3 14 7 19 10 S 1025,1 60 0,0
14.09.2019 16:00:00 27,4 15,7 30,2 11 6 24 13 SSE 1025,8 60 0,0
14.09.2019 15:00:00 28,9 12,7 32,2 11 6 23 12 SE 1026,0 60 0,0
14.09.2019 14:00:00 28,9 15,4 33,7 15 8 27 15 SE 1026,7 55 0,0
14.09.2019 13:00:00 28,3 17,2 33,8 14 7 21 11 SSE 1026,7 60 0,0
14.09.2019 12:00:00 28,3 14,5 29,6 10 6 21 12 SSE 1026,5 60 0,0
14.09.2019 11:00:00 26,8 14,9 29,7 10 5 17 9 SSE 1026,7 59 0,0
14.09.2019 10:00:00 25,5 15,2 26,4 5 3 12 6 N 1026,8 56 0,0
14.09.2019 09:00:00 21,9 14,8 21,1 8 4 15 8 NNW 1027,0 44 0,0
14.09.2019 08:00:00 18,4 13,9 15,9 7 4 16 9 N 1027,1 39 0,0
14.09.2019 07:00:00 17,2 13,3 15,7 7 4 12 6 N 1026,9 60 0,0
14.09.2019 06:00:00 18,1 13,4 16,2 8 5 14 8 N 1026,4 60 0,0
14.09.2019 05:00:00 17,9 13,6 16,4 9 5 15 8 N 1026,5 60 0,0
14.09.2019 04:00:00 18,2 13,5 16,3 5 3 12 7 N 1026,3 60 0,0
14.09.2019 03:00:00 18,3 13,8 17,1 8 5 15 8 N 1026,2 60 0,0
14.09.2019 02:00:00 18,7 14,0 17,3 8 4 14 8 N 1026,5 60 0,0
14.09.2019 01:00:00 19,1 14,1 17,7 7 4 16 9 N 1026,8 60 0,0
14.09.2019 00:00:00 19,3 14,3 17,5 9 5 15 8 N 1026,8 60 0,0
13.09.2019 23:00:00 19,9 14,7 18,3 9 5 15 8 N 1026,7 60 0,0
13.09.2019 22:00:00 20,5 14,4 18,6 4 2 11 6 N 1026,8 60 0,0
13.09.2019 21:00:00 21,7 14,6 19,5 6 4 10 6 N 1026,7 60 0,0
13.09.2019 20:00:00 24,0 14,4 20,9 4 2 9 5 N 1026,3 60 0,0
13.09.2019 19:00:00 25,8 14,9 24,7 4 2 9 5 SSW 1026,6 60 0,0
13.09.2019 18:00:00 27,6 12,4 31,6 6 3 10 6 S 1027,3 27 0,0
13.09.2019 17:00:00 28,2 12,5 33,8 6 3 16 9 S 1027,4 51 0,0
13.09.2019 16:00:00 27,7 12,1 34,2 11 6 17 9 S 1027,8 60 0,0
13.09.2019 15:00:00 27,5 14,8 33,7 8 4 22 12 SSE 1028,2 60 0,0
13.09.2019 14:00:00 26,9 18,5 33,7 16 9 21 12 S 1028,8 60 0,0
13.09.2019 13:00:00 28,4 15,3 34,3 9 5 18 10 SE 1028,7 58 0,0
13.09.2019 12:00:00 28,2 12,1 34,6 10 5 17 9 S 1028,8 60 0,0
13.09.2019 11:00:00 27,9 14,9 32,7 10 5 16 8 S 1028,7 60 0,0
13.09.2019 10:00:00 25,1 15,7 25,7 6 3 14 7 NNE 1028,5 55 0,0
13.09.2019 09:00:00 21,1 14,7 20,9 7 4 16 9 N 1028,5 53 0,0
13.09.2019 08:00:00 17,8 13,7 15,7 8 4 16 9 N 1028,7 7 0,0
13.09.2019 07:00:00 16,9 13,2 15,7 7 4 14 8 N 1028,5 60 0,0
13.09.2019 06:00:00 17,0 13,3 15,7 8 5 15 8 N 1028,3 60 0,0
13.09.2019 05:00:00 17,7 13,6 16,4 11 6 19 11 N 1028,0 60 0,0
13.09.2019 04:00:00 17,9 13,8 16,6 9 5 14 8 N 1028,3 60 0,0
13.09.2019 03:00:00 18,4 14,1 16,7 7 4 13 7 N 1028,4 60 0,0
13.09.2019 02:00:00 18,6 14,5 16,8 8 4 14 8 N 1028,2 60 0,0
13.09.2019 01:00:00 18,9 14,8 17,1 6 4 14 8 N 1027,7 60 0,0
13.09.2019 00:00:00 18,9 15,0 17,2 6 3 14 8 N 1027,6 60 0,0
12.09.2019 23:00:00 19,1 15,2 17,4 7 4 11 6 N 1027,8 60 0,0
12.09.2019 22:00:00 19,6 15,3 17,9 4 2 9 5 N 1027,9 60 0,0
12.09.2019 21:00:00 21,3 15,4 19,0 4 2 9 5 N 1027,7 60 0,0
12.09.2019 20:00:00 23,1 14,6 20,2 4 2 10 5 W 1027,4 19 0,0
12.09.2019 19:00:00 25,9 15,0 28,2 6 3 11 6 S 1027,0 53 0,0
12.09.2019 18:00:00 27,0 16,3 32,3 5 3 14 8 S 1027,0 52 0,0
12.09.2019 17:00:00 26,5 17,0 32,6 9 5 21 11 S 1027,3 20 0,0
12.09.2019 16:00:00 26,7 16,3 32,5 14 8 23 13 S 1027,6 60 0,0
12.09.2019 15:00:00 27,5 15,2 33,5 14 8 24 13 S 1027,4 60 0,0
12.09.2019 14:00:00 28,4 13,5 34,1 17 9 23 13 S 1027,7 55 0,0
12.09.2019 13:00:00 28,2 12,5 34,7 12 6 18 10 SSE 1027,8 60 0,0
12.09.2019 12:00:00 28,3 12,2 34,9 10 5 16 9 S 1028,0 60 0,0
12.09.2019 11:00:00 27,8 12,6 33,4 3 1 6 3 SW 1027,8 55 0,0
12.09.2019 10:00:00 24,0 16,3 24,4 0 0 14 7 N 1027,2 38 0,0
12.09.2019 09:00:00 19,9 14,9 19,7 6 4 18 10 N 1026,4 48 0,0
12.09.2019 08:00:00 16,7 14,0 14,7 8 4 19 10 N 1025,7 29 0,0
12.09.2019 07:00:00 15,8 13,6 14,8 9 5 19 10 N 1025,3 58 0,0
12.09.2019 06:00:00 16,0 13,8 14,8 13 7 20 11 N 1024,4 60 0,0
12.09.2019 05:00:00 15,6 13,8 14,7 7 4 13 7 N 1024,0 56 0,0
12.09.2019 04:00:00 16,4 14,1 15,1 8 4 13 7 N 1023,6 60 0,0
12.09.2019 03:00:00 16,4 14,2 15,1 4 2 13 7 N 1023,1 60 0,0
12.09.2019 02:00:00 16,8 14,6 15,6 10 5 16 9 N 1023,2 60 0,0
12.09.2019 01:00:00 17,1 14,9 16,0 7 4 14 8 N 1023,1 60 0,0
12.09.2019 00:00:00 17,9 15,2 16,9 6 4 14 8 NNE 1023,2 60 0,0
11.09.2019 23:00:00 18,4 15,3 17,4 7 4 15 8 NNE 1023,3 60 0,0
11.09.2019 22:00:00 18,9 15,0 17,4 7 4 12 7 NNE 1023,1 60 0,0
11.09.2019 21:00:00 19,8 14,2 17,9 4 2 7 4 N 1022,8 60 0,0
11.09.2019 20:00:00 21,9 14,5 19,1 2 1 9 5 NW 1021,7 60 0,0
11.09.2019 19:00:00 24,3 14,4 26,5 8 5 17 9 S 1020,9 60 0,0
11.09.2019 18:00:00 25,2 15,5 30,1 10 6 18 10 S 1020,6 53 0,0
11.09.2019 17:00:00 25,4 14,8 31,2 9 5 19 11 SSE 1020,5 60 0,0
11.09.2019 16:00:00 25,6 14,1 31,7 10 5 23 12 SSE 1020,9 60 0,0
11.09.2019 15:00:00 25,8 15,5 31,9 16 9 23 12 S 1021,2 50 0,0
11.09.2019 14:00:00 25,7 15,7 32,4 15 8 23 12 S 1021,4 48 0,0
11.09.2019 13:00:00 26,3 15,0 32,3 13 7 22 12 S 1021,1 53 0,0
11.09.2019 12:00:00 26,5 12,2 33,1 9 5 17 9 SSE 1021,0 55 0,0
11.09.2019 11:00:00 26,6 11,5 30,8 5 3 9 5 SSW 1020,1 60 0,0
11.09.2019 10:00:00 21,8 15,9 23,1 4 2 13 7 N 1019,3 49 0,0
11.09.2019 09:00:00 17,4 13,9 17,0 7 4 13 7 N 1018,6 50 0,0
11.09.2019 08:00:00 15,5 12,8 13,9 6 3 16 9 N 1018,0 56 0,0
11.09.2019 07:00:00 14,6 12,1 13,2 9 5 17 9 N 1017,7 60 0,0
11.09.2019 06:00:00 14,0 12,0 13,1 7 4 15 8 NNE 1017,1 60 0,2
11.09.2019 05:00:00 13,9 12,1 12,9 7 4 14 7 N 1016,6 60 0,0
11.09.2019 04:00:00 13,9 12,3 12,9 8 4 13 7 N 1016,9 60 0,0
11.09.2019 03:00:00 14,2 12,1 13,2 8 4 13 7 N 1016,4 60 0,0
11.09.2019 02:00:00 14,8 11,9 13,7 8 5 15 8 NNE 1016,0 60 0,0
11.09.2019 01:00:00 15,6 11,8 14,3 10 5 16 9 NNE 1015,3 60 0,0
11.09.2019 00:00:00 15,4 12,3 14,4 8 5 16 9 NNE 1015,2 60 0,0
10.09.2019 23:00:00 16,0 12,7 14,7 9 5 14 8 NNE 1015,1 60 0,0
10.09.2019 22:00:00 16,7 13,0 15,5 6 3 12 7 NE 1014,8 60 0,0
10.09.2019 21:00:00 16,8 13,1 15,4 6 4 24 13 NNE 1014,3 60 0,0
10.09.2019 20:00:00 17,9 12,8 14,9 10 6 23 12 N 1013,9 60 0,4
10.09.2019 19:00:00 17,3 13,6 15,6 5 3 16 9 N 1014,2 27 0,2
10.09.2019 18:00:00 17,5 13,2 15,9 9 5 28 15 N 1014,0 60 0,2
10.09.2019 17:00:00 16,9 14,2 15,7 10 6 27 14 N 1013,9 56 0,0
10.09.2019 16:00:00 16,5 14,1 15,7 7 4 18 10 N 1014,0 10 1,0
10.09.2019 15:00:00 16,3 13,8 15,3 10 5 24 13 NNW 1013,9 8 1,6
10.09.2019 14:00:00 16,4 14,1 15,4 3 2 9 5 WNW 1013,9 24 1,2
10.09.2019 13:00:00 15,7 13,5 14,9 3 2 12 7 W 1014,3 6 4,2
10.09.2019 12:00:00 15,5 13,7 14,6 8 4 18 10 NNE 1015,1 2,9 8,9
10.09.2019 11:00:00 15,7 13,9 14,8 8 4 24 13 N 1014,8 2,8 8,7
10.09.2019 10:00:00 16,6 15,1 16,0 6 4 29 16 NE 1014,2 3,3 13,0
10.09.2019 09:00:00 17,8 15,8 15,8 9 5 20 11 ESE 1013,2 6 1,0
10.09.2019 08:00:00 18,4 12,4 15,3 7 4 15 8 N 1013,1 60 0,0
10.09.2019 07:00:00 15,8 11,6 14,7 6 3 19 10 NNE 1012,2 60 0,0
10.09.2019 06:00:00 15,0 11,4 13,5 9 5 15 8 NNE 1013,0 60 0,0
10.09.2019 05:00:00 14,3 10,9 13,1 7 4 17 9 N 1012,9 60 0,0

tt = temperature
td = dewpoint
tt 5cm = temperature 5cm
ff = wind speed
fx = gusts
dd = wind direction
ppp = reduced air pressure
vv = visibility
rr = precipitation

Next stations